Regional Weather Roundup
Issued by NWS

Home | Current Version | Previous Version | Graphics & Text | Print | Product List | Glossary On
Versions: 1 2 3 4 5 6 7 8 9 10 11 12 13 14 15 16 17 18 19 20 21 22 23 24 25 26 27 28 29 30 31 32 33 34 35 36 37 38 39 40 41 42 43 44 45 46 47 48 49 50
853
ASUS43 KMPX 181501
RWRMN
WEATHER ROUNDUP FOR MINNESOTA
NATIONAL WEATHER SERVICE TWIN CITIES/CHANHASSEN MN
900 AM CST SUN FEB 18 2018


NOTE: "FAIR" INDICATES FEW OR NO CLOUDS BELOW 12,000 FEET WITH NO
SIGNIFICANT WEATHER AND/OR OBSTRUCTIONS TO VISIBILITY. N/A MEANS
CURRENT SKY AND/OR WEATHER CONDITIONS ARE NOT AVAILABLE.

MNZ060>063-068>070-181600-
   Twin Cities Metro

CITY           SKY/WX    TMP DP  RH WIND       PRES   REMARKS
TWIN CITIES    CLOUDY    24  14  65 SE22      29.85F WCI   9
ST PAUL        CLOUDY    25  12  58 SE18      29.88F WCI  11
CRYSTAL        CLOUDY    24  10  55 SE15G22   29.83F WCI  11
BLAINE         CLOUDY    25  10  54 SE16      29.86F WCI  12
LAKEVILLE      FAIR      25  19  80 SE14      29.84F WCI  13
EDEN PRAIRIE   CLOUDY    25  14  63 SE17      29.83F WCI  12
SOUTH ST PAUL  FAIR      24  11  57 SE13      29.87F WCI  13
LAKE ELMO      FAIR      27  12  54 SE12G17   29.88F WCI  16
$$
MNZ001>005-007-008-013>017-022>024-027-028-181600-
   Northwest Minnesota

CITY           SKY/WX    TMP DP  RH WIND       PRES   REMARKS
BEMIDJI        SNOW      11   8  88 E7        29.82S VSB 1/4 WCI   1
HALLOCK        LGT SNOW   9   5  85 NE6       29.93R WCI  -1
WARROAD        FAIR       5   0  78 E5        29.91F WCI  -4
THIEF RVR FALL LGT SNOW  11   7  84 E13       29.85F VSB 3/4 WCI  -4
CROOKSTON      LGT SNOW  12   9  85 E10       29.85S VSB 3/4 WCI  -1
FOSSTON        SNOW      12   9  85 E6        29.81F VSB<1/4 WCI   3
DETROIT LAKES  LGT SNOW  19  16  86 E12G17    29.70F WCI   7
MOORHEAD       MIX PCPN  19  16  86 E16G22    29.72  WCI   5
PARK RAPIDS    LGT SNOW  15  11  83 E10       29.76F VSB 3/4 WCI   2
MAHNOMEN       LGT SNOW  16  12  86 E9        29.78F WCI   4
$$
MNZ006-009>011-018-025>026-181600-
   North Central Minnesota

CITY           SKY/WX    TMP DP  RH WIND       PRES   REMARKS
BAUDETTE       LGT SNOW   4  -1  80 E8        29.89F VSB 3/4 WCI  -9
FLAG ISLAND    FAIR       1  -8  66 E3        29.91F
INTL FALLS     LGT SNOW   4  -3  73 E8        29.93F WCI  -9
WASKISH        LGT SNOW   9   7  92 E8        29.88F VSB 1   WCI  -4
BIG FORK       SNOW      10   7  85 E3        29.88F VSB 1/4
LONGVILLE      SNOW      14  12  92 E5        29.83F VSB 1/2 WCI   6
GRAND RAPIDS   SNOW      12   9  87 VRB6      29.87F VSB 1/2 WCI   3
CRANE LAKE     LGT SNOW   3   0  85 CALM      29.98F VSB 1
ORR            LGT SNOW   7   3  85 E3        29.89F VSB 1
COOK           LGT SNOW   9   5  85 CALM      29.93S VSB 3/4
WALKER         SNOW      13  10  88 E6        29.81F VSB 1/2 WCI   4
$$
MNZ012-019>021-037-181600-
   Northeast Minnesota

CITY           SKY/WX    TMP DP  RH WIND       PRES   REMARKS
DULUTH         SNOW      15  11  83 E12       29.90F VSB 1/2 WCI   2
ELY            LGT SNOW   7   3  85 CALM      29.95S VSB 1
HIBBING        LGT SNOW   9   6  88 E7        29.90F VSB 3/4 WCI  -2
EVELETH        SNOW     N/A N/A N/A NE5       29.92F VSB 1/2
DULUTH HARBOR  SNOW      19  16  86 E12       29.98F VSB 1/2 WCI   7
TWO HARBORS    LGT SNOW  16  10  79 NE3       29.96S
G MARAIS ARPRT CLOUDY     5  -4  66 CALM      29.97R
$$
MNZ029>031-032-039>041-046>048-054>057-064-181600-
   West Central Minnesota

CITY           SKY/WX    TMP DP  RH WIND       PRES   REMARKS
FERGUS FALLS   FAIR      21  12  68 E17G24    29.66F WCI   7
WHEATON        CLOUDY    27  16  63 E21       29.63F WCI  13
MORRIS         CLOUDY    27  18  69 SE25G32   29.61F WCI  11
ALEXANDRIA     CLOUDY    22  10  60 SE17G25   29.68F WCI   8
ELBOW LAKE     FAIR      23  13  64 SE18G25   29.65F WCI   9
WADENA         PTSUNNY   18  10  73 E15       29.71F WCI   3
GLENWOOD       FAIR      25  14  63 SE16      29.68F WCI  12
APPLETON       CLOUDY    28  21  74 SE16G23   29.61F WCI  17
BENSON         CLOUDY    27  19  74 S17G23    29.65F WCI  14
MADISON        CLOUDY    30  23  74 SE16      29.58F WCI  19
WILLMAR        FAIR      27  19  74 SE22G28   29.69S WCI  12
$$
MNZ033>034-036-042>043-049>051-058-059-181600-
   Central Minnesota

CITY           SKY/WX    TMP DP  RH WIND       PRES   REMARKS
ST CLOUD       CLOUDY    22   8  55 SE16G24   29.74F WCI   8
SAUK CENTRE    FAIR      22  10  60 SE14G22   29.71R WCI   9
PAYNESVILLE    CLOUDY    25  16  68 SE17G23   29.71F WCI  12
AITKIN         LGT SNOW  16   9  73 E10       29.83F VSB 1   WCI   3
PINE RIVER     PTSUNNY   16  10  79 E8        29.84F WCI   5
BRAINERD       CLOUDY    19   6  57 E12G23    29.78F WCI   7
STAPLES        FAIR      18   9  68 E7G17     29.74F WCI   8
LONG PRAIRIE   FAIR      21  10  63 E15G23    29.71F WCI   8
LITTLE FALLS   CLOUDY    21   3  45 E15G24    29.73F WCI   8
LITCHFIELD     FAIR      27  19  74 SE21G30   29.70F WCI  13
BUFFALO        CLOUDY    25  12  58 SE20G26   29.78F WCI  11
MAPLE LAKE     CLOUDY    26  16  63 SE17G24   29.76F WCI  14
HUTCHINSON     CLOUDY    28  22  78 SE21G29   29.72F WCI  14
$$
MNZ037-044-045-052-053-181600-
   East Central Minnesota

CITY           SKY/WX    TMP DP  RH WIND       PRES   REMARKS
PRINCETON      FAIR      23   9  54 E14G23    29.80F WCI  11
MORA           FAIR      19   9  63 E13       29.88F WCI   7
CAMBRIDGE        N/A     23  10  58 E12G18    29.85F WCI  12
RUSH CITY      CLOUDY    21   7  54 E9        29.88F WCI  11
MOOSE LAKE     CLOUDY    18   5  57 SE6       29.90F WCI   9
HINCKLEY       CLOUDY    19   9  63 E12       29.91F WCI   7
CLOQUET        CLOUDY    12   9  85 SE6       29.92S WCI   3
MCGREGOR       CLOUDY    18  12  79 SE12G17   29.87F VSB 3/4 WCI   5
$$
MNZ071>073-080-081-089-090-097-098-181600-
   Southwest Minnesota

CITY           SKY/WX    TMP DP  RH WIND       PRES   REMARKS
MONTEVIDEO     CLOUDY    28  21  74 S13       29.62F WCI  18
GRANITE FALLS  CLOUDY    31  24  74 SE16G24   29.65F WCI  20
CANBY          CLOUDY    36  24  62 SE13G20   29.57F
MARSHALL       CLOUDY    35  23  61 S22G36    29.56F WCI  23
REDWOOD FALLS  CLOUDY    29  22  75 SE30G39   29.65F WCI  13
OLIVIA         CLOUDY    30  23  74 SE29G40   29.63F WCI  15
PIPESTONE      CLOUDY    32  25  74 S22G29    29.55F WCI  19
WINDOM         MOSUNNY   34  16  47 SE30G37   29.62F HAZE    WCI  20
WORTHINGTON    CLOUDY    33  24  69 S33G41    29.59F HAZE    WCI  18
JACKSON        CLOUDY    32  23  69 S23G35    29.68F HAZE    WCI  19
TRACY          CLOUDY    32  25  76 S20G33    29.58F WCI  20
SLAYTON        CLOUDY    32  26  77 S28G33    29.58F WCI  18
$$
MNZ065>067-074>077-082>085-091>093-181600-
   South Central Minnesota

CITY           SKY/WX    TMP DP  RH WIND       PRES   REMARKS
MANKATO        FAIR      29  24  82 S23G31    29.78F WCI  15
NEW ULM        CLOUDY    28  21  74 S23G30    29.72F WCI  14
ST JAMES       CLOUDY    28  25  86 SE25G37   29.71F FOG     WCI  14
FAIRMONT       MOSUNNY   27  23  85 S28G35    29.74F WCI  11
GLENCOE        CLOUDY    29  23  78 SE17G25   29.75F WCI  17
FARIBAULT      MIX PCPN  27  21  80 SE18G26   29.83F WCI  13
OWATONNA       MIX PCPN  27  23  86 SE26G35   29.82F WCI  11
WASECA         FAIR      27  23  86 SE25G35   29.81F FOG     WCI  11
ALBERT LEA     FAIR      27  23  86 S23G32    29.83F FOG     WCI  12
$$
MNZ078>079-086>088-094>096-181600-
   Southeast Minnesota

CITY           SKY/WX    TMP DP  RH WIND       PRES   REMARKS
ROCHESTER      FAIR      25  23  92 S26G37    29.90F WCI   9
RED WING       CLOUDY    25  12  58 SE17G24   29.92F WCI  11
STANTON        PTSUNNY   28  21  72 SE16G26   29.84F WCI  17
DODGE CENTER   FAIR      25  21  86 SE28      29.86F FOG     WCI   8
WINONA         FAIR      28  23  80 SE10      30.00F WCI  19
AUSTIN         FAIR      25  23  93 SE14G25   29.88F WCI  13
PRESTON        FAIR      23  22  95 S16G25    29.95F WCI  10
$$
ABBREVIATIONS USED IN REMARKS
   TC - TEMPERATURES IN CELSIUS
  WCI - WIND CHILL INDEX
   HX - HEAT INDEX
  VSB - VISIBILITY
$$




USA.gov is the U.S. government's official web portal to all federal, state and local government web resources and services.